N4MGC Weather Reports


Display with metric or nautical units.
time (UTC)temp
F
wind
direction
speed
MPH
gust
MPH
rain 1hr
in
rain 24hr
in
rain mn
in
humidity
%
barometer
mb
20260510201757 85 45 0.0 2.0 0.00 0.00 0.00 44 1016.2
20260510201254 84 47 0.0 0.0 0.00 0.00 0.00 48 1016.3
20260510200751 85 283 0.0 0.0 0.00 0.00 0.00 47 1016.2
20260510200248 85 283 0.0 0.0 0.00 0.00 0.00 44 1016.2
20260510195745 84 65 0.0 0.0 0.00 0.00 0.00 43 1016.3
20260510195242 82 65 0.0 0.0 0.00 0.00 0.00 47 1016.1
20260510194740 82 65 0.0 0.0 0.00 0.00 0.00 49 1016.1
20260510194238 83 18 1.0 2.0 0.00 0.00 0.00 50 1016.5
20260510193734 82 33 0.0 0.0 0.00 0.00 0.00 49 1016.4
20260510193228 82 254 0.0 0.0 0.00 0.00 0.00 48 1016.3
20260510192724 84 59 0.0 0.0 0.00 0.00 0.00 51 1016.5
20260510192220 83 345 0.0 1.0 0.00 0.00 0.00 50 1016.6
20260510191716 82 276 0.0 0.0 0.00 0.00 0.00 50 1016.4
20260510191213 81 114 0.0 0.0 0.00 0.00 0.00 57 1016.7
20260510190710 83 67 0.0 0.0 0.00 0.00 0.00 50 1016.7
20260510190207 83 270 0.0 0.0 0.00 0.00 0.00 53 1016.6
20260510185704 82 13 0.0 0.0 0.00 0.00 0.00 50 1016.7
20260510185202 80 13 0.0 0.0 0.00 0.00 0.00 52 1016.6
20260510184658 80 13 0.0 0.0 0.00 0.00 0.00 55 1016.7
20260510184155 81 52 1.0 2.0 0.00 0.00 0.00 54 1016.7
20260510183650 81 261 0.0 1.0 0.00 0.00 0.00 54 1016.7
20260510183145 80 250 0.0 0.0 0.00 0.00 0.00 55 1016.8
20260510182642 80 189 0.0 0.0 0.00 0.00 0.00 56 1016.9
20260510182137 80 298 0.0 0.0 0.00 0.00 0.00 56 1016.8
20260510181635 79 76 0.0 0.0 0.00 0.00 0.00 61 1016.9
20260510181131 80 104 0.0 0.0 0.00 0.00 0.00 58 1016.9
20260510180627 81 43 0.0 0.0 0.00 0.00 0.00 57 1017.2
20260510180125 81 301 0.0 0.0 0.00 0.00 0.00 63 1017.0
20260510175621 80 53 0.0 0.0 0.00 0.00 0.00 60 1016.8
20260510175116 80 63 0.0 0.0 0.00 0.00 0.00 59 1017.2
20260510174615 80 47 0.0 0.0 0.00 0.00 0.00 57 1017.2
20260510174112 80 31 0.0 0.0 0.00 0.00 0.00 55 1017.2
20260510173607 80 94 0.0 0.0 0.00 0.00 0.00 61 1017.2
20260510173104 80 77 0.0 0.0 0.00 0.00 0.00 63 1017.3
20260510172559 79 65 3.0 5.0 0.00 0.00 0.00 62 1017.4
20260510172056 79 51 2.0 5.0 0.00 0.00 0.00 65 1017.4
20260510171553 77 41 0.0 0.0 0.00 0.00 0.00 69 1017.5
20260510171050 76 8 0.0 0.0 0.00 0.00 0.00 68 1017.6
20260510170546 78 67 0.0 0.0 0.00 0.00 0.00 68 1017.6
20260510170043 78 187 0.0 0.0 0.00 0.00 0.00 72 1017.4
20260510165539 78 189 0.0 0.0 0.00 0.00 0.00 70 1017.5
20260510165035 77 190 0.0 0.0 0.00 0.00 0.00 72 1017.8
20260510164532 78 240 0.0 0.0 0.00 0.00 0.00 78 1017.7
20260510164028 77 337 0.0 0.0 0.00 0.00 0.00 74 1017.8
20260510163518 77 351 0.0 0.0 0.00 0.00 0.00 74 1017.8
20260510163015 78 24 0.0 0.0 0.00 0.00 0.00 69 1017.9
20260510162510 77 74 0.0 0.0 0.00 0.00 0.00 74 1017.8
20260510162007 77 68 0.0 0.0 0.00 0.00 0.00 73 1017.9
20260510161503 77 67 0.0 0.0 0.00 0.00 0.00 72 1018.0
20260510160959 76 291 0.0 0.0 0.00 0.00 0.00 77 1017.7
20260510160451 75 24 0.0 0.0 0.00 0.00 0.00 76 1018.0
20260510155949 74 269 0.0 1.0 0.00 0.00 0.00 79 1017.8
20260510155447 75 219 0.0 0.0 0.00 0.00 0.00 77 1018.0
20260510154943 75 272 1.0 2.0 0.00 0.00 0.00 77 1018.1
20260510154439 75 54 0.0 0.0 0.00 0.00 0.00 76 1017.8
20260510153938 75 59 0.0 0.0 0.00 0.00 0.00 75 1017.8
20260510153435 73 15 0.0 0.0 0.00 0.00 0.00 80 1018.0
20260510152931 71 65 0.0 0.0 0.00 0.00 0.00 83 1017.7
20260510152429 70 163 0.0 0.0 0.00 0.00 0.00 86 1017.7
20260510151925 71 238 0.0 0.0 0.00 0.00 0.00 84 1017.8
20260510151422 74 89 0.0 0.0 0.00 0.00 0.00 80 1018.0
20260510150918 74 87 0.0 0.0 0.00 0.00 0.00 78 1017.9
20260510150415 72 9 0.0 0.0 0.00 0.00 0.00 82 1017.5
20260510145910 72 117 0.0 0.0 0.00 0.00 0.00 82 1017.7
20260510145407 72 35 0.0 0.0 0.00 0.00 0.00 83 1017.8
20260510144903 70 146 0.0 0.0 0.00 0.00 0.00 88 1017.9
20260510144401 71 86 0.0 0.0 0.00 0.00 0.00 86 1017.8
20260510143855 70 82 0.0 0.0 0.00 0.00 0.00 87 1018.0
20260510143351 69 94 0.0 0.0 0.00 0.00 0.00 91 1017.8
20260510142849 69 73 0.0 0.0 0.00 0.00 0.00 92 1018.1
20260510142345 69 92 0.0 0.0 0.00 0.00 0.00 91 1018.0
20260510141842 69 85 0.0 0.0 0.00 0.00 0.00 92 1018.2
20260510141339 68 91 0.0 0.0 0.00 0.00 0.00 93 1018.2
20260510140836 68 150 0.0 0.0 0.00 0.00 0.00 94 1018.3
20260510140332 68 133 0.0 0.0 0.00 0.00 0.00 94 1018.1
20260510135825 68 87 0.0 0.0 0.00 0.00 0.00 94 1018.1
20260510135321 68 149 0.0 0.0 0.00 0.00 0.00 95 1018.1
20260510134819 67 111 0.0 0.0 0.00 0.00 0.00 96 1017.9
20260510134316 67 114 0.0 0.0 0.00 0.00 0.00 96 1018.0
20260510133812 67 90 0.0 0.0 0.00 0.00 0.00 97 1017.9
20260510133308 66 90 0.0 0.0 0.00 0.00 0.00 98 1017.6
20260510132803 66 88 0.0 0.0 0.00 0.00 0.00 98 1017.7
20260510132305 66 82 0.0 0.0 0.00 0.00 0.00 99 1017.7
20260510131758 66 83 0.0 0.0 0.00 0.00 0.00 99 1017.7
20260510131256 65 82 0.0 0.0 0.00 0.00 0.00 99 1017.8
20260510130752 65 102 0.0 0.0 0.00 0.00 0.00 99 1017.6
20260510130250 65 86 0.0 0.0 0.00 0.00 0.00 99 1017.6
20260510125746 65 86 0.0 0.0 0.00 0.00 0.00 99 1017.6
20260510125242 65 85 0.0 0.0 0.00 0.00 0.00 99 1017.5
20260510124739 65 82 0.0 0.0 0.00 0.00 0.00 99 1017.3
20260510124237 65 79 0.0 0.0 0.00 0.00 0.00 99 1017.3
20260510123732 64 87 0.0 0.0 0.00 0.00 0.00 99 1017.3
20260510123228 65 86 0.0 0.0 0.00 0.00 0.00 99 1017.3
20260510122724 65 85 0.0 0.0 0.00 0.00 0.00 99 1017.1
20260510122221 64 82 0.0 0.0 0.00 0.00 0.00 99 1017.0
20260510121717 64 76 0.0 0.0 0.00 0.00 0.00 99 1017.0
20260510121215 64 83 0.0 0.0 0.00 0.00 0.00 99 1016.9
20260510120712 64 91 0.0 0.0 0.00 0.00 0.00 99 1016.9
20260510120208 64 84 0.0 0.0 0.00 0.00 0.00 99 1016.7
20260510115704 64 79 0.0 0.0 0.00 0.00 0.00 99 1016.8
20260510115202 64 86 0.0 0.0 0.00 0.00 0.00 99 1016.6
20260510114657 64 99 0.0 0.0 0.00 0.00 0.00 99 1016.4
20260510114154 64 91 0.0 0.0 0.00 0.00 0.00 99 1016.2
20260510113649 64 90 0.0 0.0 0.00 0.00 0.00 99 1016.1
20260510113147 64 83 0.0 0.0 0.00 0.00 0.00 99 1015.9
20260510112643 64 93 0.0 0.0 0.00 0.00 0.00 99 1015.9
20260510112140 64 94 0.0 0.0 0.00 0.00 0.00 99 1015.8
20260510111636 64 93 0.0 0.0 0.00 0.00 0.00 99 1015.6
20260510111132 64 93 0.0 0.0 0.00 0.00 0.00 99 1015.6
20260510110628 64 92 0.0 0.0 0.00 0.00 0.00 99 1015.2
20260510110125 64 91 0.0 0.0 0.00 0.00 0.00 99 1015.4
20260510105621 64 94 0.0 0.0 0.00 0.00 0.00 99 1015.4
20260510105115 64 93 0.0 0.0 0.00 0.00 0.00 99 1015.3
20260510104612 64 94 0.0 0.0 0.00 0.00 0.00 99 1015.3
20260510104109 64 94 0.0 0.0 0.00 0.00 0.00 99 1015.2
20260510103606 64 93 0.0 0.0 0.00 0.00 0.00 99 1014.9
20260510103102 64 93 0.0 0.0 0.00 0.00 0.00 99 1014.8
20260510102557 64 93 0.0 0.0 0.00 0.00 0.00 99 1015.0
20260510102054 64 92 0.0 0.0 0.00 0.00 0.00 99 1014.7
20260510101551 64 92 0.0 0.0 0.00 0.00 0.00 99 1014.6
20260510101050 64 92 0.0 0.0 0.00 0.00 0.00 99 1014.7
20260510100545 64 88 0.0 0.0 0.00 0.00 0.00 99 1014.8
20260510100043 64 90 0.0 0.0 0.00 0.00 0.00 99 1014.7
20260510095539 64 94 0.0 0.0 0.00 0.00 0.00 99 1014.7
20260510095038 64 90 0.0 0.0 0.00 0.00 0.00 99 1014.7
20260510094533 64 92 0.0 0.0 0.00 0.00 0.00 99 1014.7
20260510094029 64 93 0.0 0.0 0.00 0.00 0.00 99 1014.7
20260510093524 65 94 0.0 0.0 0.00 0.00 0.00 99 1014.5
20260510093022 65 90 0.0 0.0 0.00 0.00 0.00 99 1014.3
20260510092519 65 93 0.0 0.0 0.00 0.00 0.00 99 1014.7
20260510092018 65 91 0.0 0.0 0.00 0.00 0.00 99 1014.7
20260510091515 65 94 0.0 0.0 0.00 0.00 0.00 99 1014.4
20260510091011 65 80 0.0 0.0 0.00 0.00 0.00 99 1014.5
20260510090508 65 104 0.0 0.0 0.00 0.00 0.00 99 1014.4
20260510090004 65 104 0.0 0.0 0.00 0.00 0.00 99 1014.6
20260510085459 65 100 0.0 0.0 0.00 0.00 0.00 99 1014.2
20260510084955 65 99 0.0 0.0 0.00 0.00 0.00 99 1014.3
20260510084452 64 104 0.0 0.0 0.00 0.00 0.00 99 1014.1
20260510083949 65 116 0.0 0.0 0.00 0.00 0.00 99 1014.0
20260510083445 64 116 0.0 0.0 0.00 0.00 0.00 99 1013.9
20260510082940 65 117 0.0 0.0 0.00 0.00 0.00 99 1013.9
20260510082439 65 93 0.0 0.0 0.00 0.00 0.00 99 1013.9
20260510081938 65 89 0.0 0.0 0.00 0.00 0.00 99 1014.2
20260510081434 65 86 0.0 0.0 0.00 0.00 0.00 99 1013.9
20260510080930 65 96 0.0 0.0 0.00 0.00 0.00 99 1013.9
20260510080428 65 103 0.0 0.0 0.00 0.00 0.00 99 1013.8
20260510075926 65 112 0.0 0.0 0.00 0.00 0.00 99 1013.7
20260510075424 65 112 0.0 0.0 0.00 0.00 0.00 99 1013.7
20260510074920 65 112 0.0 0.0 0.00 0.00 0.00 99 1013.6
20260510074417 65 112 0.0 0.0 0.00 0.00 0.00 99 1013.7
20260510073914 65 112 0.0 0.0 0.00 0.00 0.00 99 1013.5
20260510073409 65 112 0.0 0.0 0.00 0.00 0.00 99 1013.6
20260510072906 65 112 0.0 0.0 0.00 0.00 0.00 99 1013.5
20260510072403 65 97 0.0 0.0 0.00 0.00 0.00 99 1013.6
20260510071858 65 99 0.0 0.0 0.00 0.00 0.00 99 1013.5
20260510071355 65 127 0.0 0.0 0.00 0.00 0.00 99 1013.7
20260510070854 65 120 0.0 0.0 0.00 0.00 0.00 99 1013.7
20260510070350 65 119 0.0 0.0 0.00 0.00 0.00 99 1013.6
20260510065850 65 119 0.0 0.0 0.00 0.00 0.00 99 1013.7
20260510065347 65 122 0.0 0.0 0.00 0.00 0.00 99 1013.8
20260510064844 65 120 0.0 0.0 0.00 0.00 0.00 99 1013.5
20260510064342 65 120 0.0 0.0 0.00 0.00 0.00 99 1013.6
20260510063838 65 120 0.0 0.0 0.00 0.00 0.00 99 1013.8
20260510063334 65 123 0.0 0.0 0.00 0.00 0.00 99 1013.8
20260510062831 65 151 0.0 0.0 0.00 0.00 0.00 99 1013.7
20260510062327 65 76 0.0 0.0 0.00 0.00 0.00 99 1014.0
20260510061822 65 105 0.0 0.0 0.00 0.00 0.00 99 1013.9
20260510061319 65 112 0.0 0.0 0.00 0.00 0.00 99 1013.9
20260510060815 65 105 0.0 0.0 0.00 0.00 0.00 99 1014.1
20260510060313 64 147 0.0 0.0 0.00 0.00 0.00 99 1014.1
20260510055809 64 134 0.0 0.0 0.00 0.00 0.00 99 1014.0
20260510055308 64 123 0.0 0.0 0.00 0.00 0.00 99 1014.2
20260510054807 65 122 0.0 0.0 0.00 0.00 0.00 99 1014.1
20260510054303 65 122 0.0 0.0 0.00 0.00 0.00 99 1014.2
20260510053758 64 122 0.0 0.0 0.00 0.00 0.00 99 1014.0
20260510053254 64 122 0.0 0.0 0.00 0.00 0.00 99 1014.3
20260510052750 64 123 0.0 0.0 0.00 0.00 0.00 99 1014.2
20260510052246 64 122 0.0 0.0 0.00 0.00 0.00 99 1014.3
20260510051742 64 122 0.0 0.0 0.00 0.00 0.00 99 1014.1
20260510051239 64 122 0.0 0.0 0.00 0.00 0.00 99 1014.1
20260510050736 64 122 0.0 0.0 0.00 0.00 0.00 99 1014.3
20260510050233 64 122 0.0 0.0 0.00 0.00 0.00 99 1014.1
20260510045730 64 122 0.0 0.0 0.00 0.00 0.00 99 1014.0
20260510045226 64 126 0.0 0.0 0.00 0.00 0.00 99 1014.3
20260510044723 64 126 0.0 0.0 0.00 0.00 0.00 99 1014.2
20260510044221 64 112 0.0 0.0 0.00 0.00 0.00 99 1014.3
20260510043716 64 112 0.0 0.0 0.00 0.00 0.00 99 1014.4
20260510043213 63 112 0.0 0.0 0.00 0.00 0.00 99 1014.2
20260510042710 63 112 0.0 0.0 0.00 0.00 0.00 99 1014.2
20260510042206 63 112 0.0 0.0 0.00 0.00 0.00 99 1014.4
20260510041703 63 112 0.0 0.0 0.00 0.00 0.00 99 1014.3
20260510041201 63 112 0.0 0.0 0.00 0.00 0.00 99 1014.2
20260510040657 63 112 0.0 0.0 0.00 0.00 0.00 99 1014.3
20260510040154 63 111 0.0 0.0 0.00 0.00 0.00 99 1014.5
20260510035649 63 112 0.0 0.0 0.00 0.00 0.00 99 1014.5
20260510035145 63 111 0.0 0.0 0.00 0.00 0.00 99 1014.2
20260510034642 63 111 0.0 0.0 0.00 0.00 0.00 99 1014.5
20260510034139 62 111 0.0 0.0 0.00 0.00 0.00 99 1014.5
20260510033635 63 111 0.0 0.0 0.00 0.00 0.00 99 1014.3
20260510033133 63 112 0.0 0.0 0.00 0.00 0.00 99 1014.5
20260510032630 63 112 0.0 0.0 0.00 0.00 0.00 99 1014.5
20260510032125 63 112 0.0 0.0 0.00 0.00 0.00 99 1014.5
20260510031620 63 112 0.0 0.0 0.00 0.00 0.00 99 1014.3
20260510031117 63 111 0.0 0.0 0.00 0.00 0.00 99 1014.5
20260510030611 63 112 0.0 0.0 0.00 0.00 0.00 99 1014.4
20260510030109 63 112 0.0 0.0 0.00 0.00 0.00 99 1014.2
20260510025606 63 112 0.0 0.0 0.00 0.00 0.00 99 1014.0
20260510025104 63 122 0.0 0.0 0.00 0.00 0.00 99 1014.1
20260510024600 64 122 0.0 0.0 0.00 0.00 0.00 99 1014.1
20260510024057 64 122 0.0 0.0 0.00 0.00 0.00 99 1014.1
20260510023553 64 123 0.0 0.0 0.00 0.00 0.00 99 1014.0
20260510023050 64 113 0.0 0.0 0.00 0.00 0.00 99 1013.9
20260510022549 64 113 0.0 0.0 0.00 0.00 0.00 99 1013.8
20260510022044 64 113 0.0 0.0 0.00 0.00 0.00 99 1013.7
20260510021541 64 113 0.0 0.0 0.00 0.00 0.00 99 1013.8
20260510021038 64 112 0.0 0.0 0.00 0.00 0.00 99 1013.4
20260510020532 64 112 0.0 0.0 0.00 0.00 0.00 99 1013.7
20260510020028 64 112 0.0 0.0 0.00 0.00 0.00 98 1013.4
20260510015524 65 112 0.0 0.0 0.00 0.00 0.00 98 1013.1
20260510015020 65 112 0.0 0.0 0.00 0.00 0.00 98 1013.4
20260510014517 65 112 0.0 0.0 0.00 0.00 0.00 98 1013.3
20260510014014 65 112 0.0 0.0 0.00 0.00 0.00 98 1013.1
20260510013509 65 112 0.0 0.0 0.00 0.00 0.00 98 1012.8
20260510013004 66 112 0.0 0.0 0.00 0.00 0.00 98 1012.7
20260510012459 66 113 0.0 0.0 0.00 0.00 0.00 98 1012.8
20260510011954 66 99 0.0 0.0 0.00 0.00 0.00 98 1012.6
20260510011449 66 101 0.0 0.0 0.00 0.00 0.00 97 1012.5
20260510010946 66 100 0.0 0.0 0.00 0.00 0.00 97 1012.7
20260510010443 66 101 0.0 0.0 0.00 0.00 0.00 97 1012.8
20260510005940 67 100 0.0 0.0 0.00 0.00 0.00 97 1012.2
20260510005436 67 100 0.0 0.0 0.00 0.00 0.00 97 1012.3
20260510004933 67 100 0.0 0.0 0.00 0.00 0.00 97 1012.2
20260510004430 68 100 0.0 0.0 0.00 0.00 0.00 97 1012.2
20260510003929 68 100 0.0 0.0 0.00 0.00 0.00 97 1012.2
20260510003425 68 100 0.0 0.0 0.00 0.00 0.00 97 1012.0
20260510002924 68 100 0.0 0.0 0.00 0.00 0.00 97 1012.2
20260510002422 69 100 0.0 0.0 0.00 0.00 0.00 96 1011.9
20260510001918 69 100 0.0 0.0 0.00 0.00 0.00 96 1012.2
20260510001416 69 100 0.0 0.0 0.00 0.00 0.00 95 1012.1
20260510000913 69 100 0.0 0.0 0.00 0.00 0.00 94 1012.0
20260510000411 70 100 0.0 0.0 0.00 0.00 0.00 94 1012.0
20260509235905 70 100 0.0 0.0 0.00 0.00 0.00 93 1012.0
20260509235403 70 100 0.0 0.0 0.00 0.00 0.00 92 1011.8
20260509234858 70 100 0.0 0.0 0.00 0.00 0.00 92 1011.8
20260509234356 71 93 0.0 0.0 0.00 0.00 0.00 92 1011.6
20260509233854 71 92 0.0 0.0 0.00 0.00 0.00 91 1011.6
20260509233351 71 112 0.0 0.0 0.00 0.00 0.00 90 1011.7
20260509232846 71 113 0.0 0.0 0.00 0.00 0.00 89 1011.6
20260509232345 72 112 0.0 0.0 0.00 0.00 0.00 88 1011.6
20260509231841 72 112 0.0 0.0 0.00 0.00 0.00 87 1011.6
20260509231338 72 112 0.0 0.0 0.00 0.00 0.00 87 1011.7
20260509230836 73 112 0.0 0.0 0.00 0.00 0.00 84 1011.6
20260509230332 73 112 0.0 0.0 0.00 0.00 0.00 83 1011.4
20260509225827 73 112 0.0 0.0 0.00 0.00 0.00 83 1011.7
20260509225325 73 113 0.0 0.0 0.00 0.00 0.00 83 1011.7
20260509224821 74 103 0.0 0.0 0.00 0.00 0.00 81 1011.5
20260509224317 74 129 0.0 0.0 0.00 0.00 0.00 81 1011.5
20260509223813 74 129 0.0 0.0 0.00 0.00 0.00 79 1011.5
20260509223310 74 129 0.0 0.0 0.00 0.00 0.00 76 1011.4
20260509222807 74 122 0.0 0.0 0.00 0.00 0.00 77 1011.7
20260509222306 75 122 0.0 0.0 0.00 0.00 0.00 78 1011.4
20260509221758 75 122 0.0 0.0 0.00 0.00 0.00 77 1011.7
20260509221256 75 134 0.0 0.0 0.00 0.00 0.00 73 1011.4
20260509220751 75 149 0.0 0.0 0.00 0.00 0.00 76 1011.4
20260509220248 75 271 0.0 0.0 0.00 0.00 0.00 77 1011.0
20260509215743 75 271 0.0 0.0 0.00 0.00 0.00 74 1011.4
20260509215240 75 149 0.0 0.0 0.00 0.00 0.00 77 1011.2
20260509214737 75 149 0.0 0.0 0.00 0.00 0.00 73 1011.2
20260509214234 75 255 0.0 0.0 0.00 0.00 0.00 73 1011.2
20260509213731 75 255 0.0 0.0 0.00 0.00 0.00 74 1011.1
20260509213226 75 163 0.0 0.0 0.00 0.00 0.00 72 1011.1
20260509212724 75 174 0.0 0.0 0.00 0.00 0.00 73 1011.0
20260509212221 75 184 0.0 0.0 0.00 0.00 0.00 73 1011.0
20260509211717 74 75 0.0 0.0 0.00 0.00 0.00 73 1010.9
20260509211213 75 75 0.0 0.0 0.00 0.00 0.00 75 1010.5
20260509210710 75 272 0.0 1.0 0.00 0.00 0.00 74 1010.7
20260509210208 76 37 0.0 0.0 0.00 0.00 0.00 75 1011.0
20260509205707 76 187 0.0 0.0 0.00 0.00 0.00 74 1010.8
20260509205207 76 53 0.0 0.0 0.00 0.00 0.00 73 1010.8
20260509204703 75 89 0.0 0.0 0.00 0.00 0.00 73 1010.9
20260509204200 75 104 0.0 0.0 0.00 0.00 0.00 72 1011.0
20260509203655 76 162 0.0 0.0 0.00 0.00 0.00 73 1011.2
20260509203154 76 145 0.0 0.0 0.00 0.00 0.00 75 1011.1
20260509202649 76 285 0.0 0.0 0.00 0.00 0.00 72 1011.3
20260509202144 76 165 0.0 0.0 0.00 0.00 0.00 73 1011.3